カタログに戻る

DELTA 1 DEB

運用中LEO
NORAD 7074·DEBRIS·🇺🇸 United States

打ち上げ Nov 6, 1973 から Vandenberg Space Force Base

Loading…

次のパス (今後24時間)

TLE

最新Source: Space-Track

元期: Sep 14, 2026, 13:53 UTC

1 07074U 73086BS  26257.57866253 -.00000023  00000-0  12270-3 0  9997
2 07074 101.9462  14.0154 0176055 294.3206 132.6009 12.72210718453631

AllMySatでDELTA 1 DEBをリアルタイム追跡

Download on the App Store